WJA2648 CYOW-MKJS

Flight info

Callsign WJA2648
Flight time N/A
Altitude 36000
Route IKLAX Q844 SYR DCT CFB DCT ALXEA Q111 ZORDO/N0446F380 Q107 GARIC AR3 JAZZI Y307 ENAMO DCT MIROM/N0453F390 UR625 ULDAR DCT TILUP OMAXI7
Aircraft B737/M-SDE2E3FGHIRWXY/LB1

Departure

Time 2026-04-28 23:37
Airport Ottawa Macdonald-Cartier International Airport (CYOW)

Arrival

Time N/A
Airport Sangster International Airport (MKJS)
Time Latitude Longitude Altitude Speed Heading
2026-04-28 23:09 45.32099 -75.66671 380 ft 0 kts 36°
2026-04-28 23:24 45.32091 -75.66680 380 ft 3 kts 36°
2026-04-28 23:24 45.32076 -75.66695 379 ft 3 kts 36°
2026-04-28 23:25 45.32061 -75.66711 379 ft 3 kts 36°
2026-04-28 23:25 45.32046 -75.66726 378 ft 3 kts 36°
2026-04-28 23:25 45.32043 -75.66730 378 ft 0 kts 36°
2026-04-28 23:29 45.32044 -75.66728 378 ft 1 kts 41°
2026-04-28 23:29 45.32046 -75.66718 378 ft 1 kts 76°
2026-04-28 23:30 45.32043 -75.66706 379 ft 3 kts 121°
2026-04-28 23:30 45.32021 -75.66699 379 ft 4 kts 176°
2026-04-28 23:30 45.31990 -75.66681 379 ft 6 kts 135°
2026-04-28 23:30 45.31964 -75.66632 379 ft 7 kts 126°
2026-04-28 23:31 45.31929 -75.66563 379 ft 10 kts 126°
2026-04-28 23:31 45.31882 -75.66468 377 ft 13 kts 112°
2026-04-28 23:31 45.31906 -75.66353 377 ft 13 kts 57°
2026-04-28 23:31 45.31953 -75.66250 377 ft 12 kts 57°
2026-04-28 23:32 45.32002 -75.66142 374 ft 14 kts 58°
2026-04-28 23:32 45.32052 -75.66029 374 ft 13 kts 57°
2026-04-28 23:32 45.32101 -75.65922 374 ft 13 kts 57°
2026-04-28 23:32 45.32152 -75.65812 373 ft 13 kts 56°
2026-04-28 23:33 45.32200 -75.65702 375 ft 13 kts 59°
2026-04-28 23:33 45.32249 -75.65594 375 ft 13 kts 56°
2026-04-28 23:33 45.32297 -75.65488 375 ft 13 kts 57°
2026-04-28 23:33 45.32345 -75.65382 376 ft 13 kts 57°
2026-04-28 23:34 45.32395 -75.65271 374 ft 14 kts 58°
2026-04-28 23:34 45.32449 -75.65149 373 ft 15 kts 57°
2026-04-28 23:34 45.32508 -75.65023 371 ft 16 kts 56°
2026-04-28 23:34 45.32571 -75.64881 369 ft 17 kts 60°
2026-04-28 23:35 45.32587 -75.64720 369 ft 16 kts 102°
2026-04-28 23:35 45.32578 -75.64665 368 ft 0 kts 104°
2026-04-28 23:35 45.32576 -75.64656 371 ft 3 kts 105°
2026-04-28 23:36 45.32563 -75.64604 371 ft 10 kts 114°
2026-04-28 23:36 45.32490 -75.64564 368 ft 14 kts 213°
2026-04-28 23:36 45.32387 -75.64774 369 ft 61 kts 237°
2026-04-28 23:36 45.31988 -75.65655 372 ft 148 kts 236°
2026-04-28 23:37 45.31336 -75.67058 949 ft 177 kts 231°
2026-04-28 23:37 45.30503 -75.68171 2594 ft 147 kts 206°
2026-04-28 23:37 45.29572 -75.68677 3877 ft 154 kts 190°
2026-04-28 23:37 45.28363 -75.68870 4327 ft 196 kts 187°
2026-04-28 23:38 45.26896 -75.69051 4950 ft 223 kts 187°
2026-04-28 23:38 45.25294 -75.69306 5844 ft 233 kts 189°
2026-04-28 23:38 45.23685 -75.69630 6793 ft 235 kts 190°
2026-04-28 23:38 45.22055 -75.69948 7508 ft 238 kts 191°
2026-04-28 23:39 45.20379 -75.70280 7973 ft 254 kts 191°
2026-04-28 23:39 45.18572 -75.70648 8526 ft 267 kts 191°
2026-04-28 23:39 45.16720 -75.71028 9334 ft 272 kts 191°
2026-04-28 23:39 45.14829 -75.71421 10113 ft 277 kts 192°
2026-04-28 23:40 45.12869 -75.71835 10487 ft 297 kts 192°
2026-04-28 23:40 45.10740 -75.72287 10672 ft 322 kts 192°
2026-04-28 23:40 45.08458 -75.72771 10988 ft 340 kts 192°
2026-04-28 23:40 45.06087 -75.73269 11596 ft 347 kts 192°
2026-04-28 23:41 45.03681 -75.73777 12298 ft 352 kts 192°
2026-04-28 23:41 45.01239 -75.74302 12970 ft 358 kts 194°
2026-04-28 23:41 44.98835 -75.75235 13657 ft 359 kts 205°
2026-04-28 23:41 44.96588 -75.76771 14357 ft 359 kts 213°
2026-04-28 23:42 44.94412 -75.78547 15064 ft 363 kts 214°
2026-04-28 23:42 44.92257 -75.80343 15776 ft 366 kts 215°
2026-04-28 23:42 44.90029 -75.82195 16546 ft 368 kts 215°
2026-04-28 23:42 44.87815 -75.84017 17392 ft 368 kts 215°
2026-04-28 23:43 44.85625 -75.85806 18169 ft 370 kts 215°
2026-04-28 23:43 44.83386 -75.87627 18805 ft 373 kts 214°
2026-04-28 23:43 44.81127 -75.89458 19441 ft 376 kts 214°
2026-04-28 23:43 44.78853 -75.91297 20079 ft 378 kts 214°
2026-04-28 23:44 44.76563 -75.93148 20725 ft 381 kts 214°
2026-04-28 23:44 44.74259 -75.95007 21343 ft 383 kts 214°
2026-04-28 23:44 44.71887 -75.96780 21938 ft 389 kts 207°
2026-04-28 23:44 44.69312 -75.98041 22536 ft 396 kts 199°
2026-04-28 23:45 44.66572 -75.98736 23118 ft 404 kts 190°
2026-04-28 23:45 44.63757 -75.99060 23685 ft 407 kts 188°
2026-04-28 23:45 44.60921 -75.99333 24174 ft 409 kts 188°
2026-04-28 23:45 44.58075 -75.99602 24677 ft 410 kts 188°
2026-04-28 23:46 44.55225 -75.99883 25186 ft 411 kts 188°
2026-04-28 23:46 44.52362 -76.00181 25677 ft 413 kts 188°
2026-04-28 23:46 44.49495 -76.00490 26147 ft 414 kts 188°
2026-04-28 23:46 44.46614 -76.00805 26602 ft 416 kts 188°
2026-04-28 23:47 44.43725 -76.01123 27044 ft 418 kts 188°
2026-04-28 23:47 44.40821 -76.01443 27481 ft 419 kts 187°
2026-04-28 23:47 44.37905 -76.01762 27902 ft 421 kts 187°
2026-04-28 23:47 44.34976 -76.02083 28316 ft 423 kts 187°
2026-04-28 23:48 44.32040 -76.02430 28717 ft 424 kts 188°
2026-04-28 23:48 44.29097 -76.02868 29101 ft 426 kts 189°
2026-04-28 23:48 44.26150 -76.03348 29468 ft 428 kts 189°
2026-04-28 23:48 44.23192 -76.03840 29826 ft 430 kts 189°
2026-04-28 23:49 44.20210 -76.04334 29996 ft 433 kts 189°
2026-04-28 23:49 44.17205 -76.04824 29989 ft 435 kts 189°
2026-04-28 23:49 44.11209 -76.05781 29988 ft 433 kts 189°
2026-04-28 23:50 44.05223 -76.06721 30008 ft 432 kts 189°
2026-04-28 23:50 43.99251 -76.07656 30003 ft 432 kts 189°
2026-04-28 23:51 43.93311 -76.08585 30002 ft 433 kts 189°
2026-04-28 23:51 43.87325 -76.09520 29998 ft 433 kts 189°
2026-04-28 23:52 43.81321 -76.10456 29997 ft 435 kts 189°
2026-04-28 23:52 43.75299 -76.11393 29993 ft 436 kts 189°
2026-04-28 23:53 43.69255 -76.12331 29995 ft 438 kts 189°
2026-04-28 23:53 43.63173 -76.13273 30002 ft 441 kts 189°
2026-04-28 23:54 43.57058 -76.14219 30052 ft 445 kts 189°
2026-04-28 23:54 43.53995 -76.14691 30483 ft 442 kts 189°
2026-04-28 23:54 43.50950 -76.15159 31026 ft 437 kts 190°
2026-04-28 23:55 43.47938 -76.15621 31565 ft 433 kts 190°
2026-04-28 23:55 43.44960 -76.16078 32072 ft 429 kts 190°
2026-04-28 23:55 43.42000 -76.16533 32473 ft 428 kts 190°
2026-04-28 23:55 43.39047 -76.16988 32828 ft 427 kts 190°
2026-04-28 23:56 43.37089 -76.17289 33057 ft 427 kts 190°
2026-04-28 23:56 43.34140 -76.17742 33446 ft 425 kts 191°
2026-04-28 23:56 43.31203 -76.18191 33860 ft 423 kts 191°
2026-04-28 23:56 43.28273 -76.18641 34010 ft 427 kts 191°
2026-04-28 23:57 43.22343 -76.19549 34032 ft 428 kts 191°
2026-04-28 23:57 43.16452 -76.20417 34034 ft 424 kts 188°
2026-04-28 23:58 43.10522 -76.20220 34041 ft 429 kts 182°
2026-04-28 23:58 43.04538 -76.19745 34051 ft 432 kts 182°
2026-04-28 23:59 42.98533 -76.19288 34040 ft 432 kts 182°
2026-04-28 23:59 42.92542 -76.18860 34035 ft 431 kts 182°
2026-04-29 00:00 42.86548 -76.18445 34044 ft 432 kts 183°
2026-04-29 00:00 42.80546 -76.18031 34040 ft 432 kts 183°
2026-04-29 00:01 42.74535 -76.17618 34036 ft 432 kts 183°
2026-04-29 00:01 42.68528 -76.17204 34046 ft 432 kts 183°
2026-04-29 00:02 42.62532 -76.16792 34052 ft 431 kts 183°
2026-04-29 00:02 42.56538 -76.16381 34055 ft 431 kts 183°
2026-04-29 00:03 42.50542 -76.15971 34052 ft 431 kts 183°
2026-04-29 00:03 42.44545 -76.15560 34058 ft 432 kts 184°
2026-04-29 00:04 42.38542 -76.15151 34066 ft 432 kts 184°
2026-04-29 00:04 42.32534 -76.14743 34069 ft 433 kts 184°
2026-04-29 00:05 42.26515 -76.14334 34069 ft 433 kts 184°
2026-04-29 00:05 42.20489 -76.13925 34055 ft 434 kts 184°
2026-04-29 00:06 42.14490 -76.13889 34055 ft 426 kts 194°
2026-04-29 00:06 42.08722 -76.15440 34064 ft 423 kts 198°
2026-04-29 00:07 42.02974 -76.17118 34063 ft 423 kts 198°
2026-04-29 00:07 41.97226 -76.18763 34073 ft 422 kts 198°
2026-04-29 00:08 41.91510 -76.20371 34079 ft 423 kts 198°
2026-04-29 00:08 41.85750 -76.21977 34083 ft 423 kts 198°
2026-04-29 00:09 41.79984 -76.23580 34081 ft 423 kts 198°
2026-04-29 00:09 41.74221 -76.25179 34078 ft 423 kts 198°
2026-04-29 00:10 41.68456 -76.26776 34087 ft 423 kts 198°
2026-04-29 00:10 41.62685 -76.28372 34084 ft 423 kts 198°
2026-04-29 00:11 41.56917 -76.29965 34091 ft 424 kts 198°
2026-04-29 00:12 41.48249 -76.32353 34094 ft 425 kts 198°
2026-04-29 00:12 41.42453 -76.33946 34093 ft 425 kts 198°
2026-04-29 00:13 41.36653 -76.35538 34099 ft 426 kts 198°
2026-04-29 00:13 41.30843 -76.37138 34098 ft 427 kts 198°
2026-04-29 00:14 41.25023 -76.38723 34108 ft 428 kts 198°
2026-04-29 00:14 41.22093 -76.39522 34209 ft 430 kts 198°
2026-04-29 00:14 41.19164 -76.40319 34534 ft 428 kts 198°
2026-04-29 00:14 41.16257 -76.41109 34862 ft 427 kts 198°
2026-04-29 00:15 41.13344 -76.41900 35087 ft 428 kts 199°
2026-04-29 00:15 41.10423 -76.42696 35281 ft 429 kts 199°
2026-04-29 00:15 41.07496 -76.43492 35515 ft 429 kts 199°
2026-04-29 00:15 41.04574 -76.44285 35756 ft 429 kts 199°
2026-04-29 00:16 41.01650 -76.45078 35979 ft 429 kts 199°
2026-04-29 00:16 40.98722 -76.45873 36113 ft 431 kts 199°
2026-04-29 00:16 40.95774 -76.46672 36106 ft 432 kts 199°
2026-04-29 00:17 40.89937 -76.48248 36113 ft 430 kts 199°
2026-04-29 00:17 40.84094 -76.49823 36120 ft 428 kts 199°
2026-04-29 00:18 40.78274 -76.51390 36125 ft 426 kts 199°
2026-04-29 00:18 40.72466 -76.52953 36126 ft 425 kts 199°
2026-04-29 00:19 40.66669 -76.54510 36128 ft 425 kts 199°
2026-04-29 00:19 40.60865 -76.56066 36124 ft 426 kts 199°
2026-04-29 00:20 40.55043 -76.57625 36105 ft 428 kts 199°
2026-04-29 00:20 40.49182 -76.59192 36098 ft 431 kts 199°
2026-04-29 00:21 40.43291 -76.60762 36102 ft 433 kts 199°
2026-04-29 00:21 40.37377 -76.62335 36108 ft 435 kts 199°
2026-04-29 00:22 40.31440 -76.63912 36112 ft 436 kts 199°
2026-04-29 00:22 40.25478 -76.65492 36109 ft 437 kts 199°
2026-04-29 00:23 40.19510 -76.67071 36099 ft 438 kts 199°
2026-04-29 00:23 40.13526 -76.68650 36099 ft 438 kts 199°
2026-04-29 00:24 40.07553 -76.70225 36099 ft 438 kts 199°
2026-04-29 00:24 40.01581 -76.71796 36107 ft 438 kts 199°
2026-04-29 00:25 39.95618 -76.73363 36102 ft 437 kts 199°
2026-04-29 00:25 39.89658 -76.74926 36110 ft 437 kts 199°
2026-04-29 00:26 39.83703 -76.76485 36109 ft 436 kts 199°
2026-04-29 00:26 39.77750 -76.78041 36109 ft 437 kts 199°
2026-04-29 00:27 39.71776 -76.79602 36101 ft 439 kts 199°
2026-04-29 00:27 39.65788 -76.81162 36088 ft 439 kts 199°
2026-04-29 00:28 39.59801 -76.82716 36102 ft 438 kts 199°
2026-04-29 00:28 39.53814 -76.84270 36096 ft 439 kts 199°
2026-04-29 00:29 39.47821 -76.85823 36098 ft 439 kts 200°
2026-04-29 00:29 39.41826 -76.87373 36106 ft 440 kts 200°
2026-04-29 00:30 39.35823 -76.88923 36116 ft 441 kts 200°
2026-04-29 00:30 39.29806 -76.90474 36110 ft 441 kts 200°
2026-04-29 00:31 39.23785 -76.92022 36119 ft 441 kts 200°
2026-04-29 00:31 39.17758 -76.93570 36125 ft 442 kts 200°
2026-04-29 00:32 39.11730 -76.95115 36100 ft 442 kts 200°
2026-04-29 00:32 39.05700 -76.96657 36101 ft 441 kts 200°
2026-04-29 00:33 38.99672 -76.98197 36098 ft 442 kts 200°
2026-04-29 00:33 38.93643 -76.99735 36099 ft 442 kts 200°
2026-04-29 00:34 38.87606 -77.01272 36101 ft 442 kts 200°
2026-04-29 00:34 38.81569 -77.02806 36100 ft 443 kts 200°
2026-04-29 00:35 38.75526 -77.04339 36098 ft 443 kts 200°
2026-04-29 00:35 38.69481 -77.05870 36064 ft 443 kts 200°
2026-04-29 00:36 38.63439 -77.07397 36070 ft 443 kts 201°
2026-04-29 00:36 38.57385 -77.08925 36075 ft 443 kts 201°
2026-04-29 00:37 38.51334 -77.10450 36088 ft 444 kts 201°
2026-04-29 00:37 38.45276 -77.11974 36093 ft 444 kts 201°
2026-04-29 00:38 38.39249 -77.13487 36089 ft 445 kts 201°
2026-04-29 00:38 38.33177 -77.15009 36093 ft 445 kts 201°
2026-04-29 00:39 38.27087 -77.16534 36082 ft 446 kts 201°
2026-04-29 00:39 38.20988 -77.18058 36085 ft 447 kts 202°
2026-04-29 00:40 38.14868 -77.19584 36085 ft 448 kts 202°
2026-04-29 00:40 38.08740 -77.21109 36089 ft 449 kts 202°
2026-04-29 00:41 38.03639 -77.22377 36087 ft 450 kts 202°
2026-04-29 00:41 37.97486 -77.23904 36099 ft 451 kts 202°
2026-04-29 00:42 37.91330 -77.25429 36105 ft 451 kts 202°
2026-04-29 00:42 37.85163 -77.26954 36111 ft 452 kts 202°
2026-04-29 00:43 37.78994 -77.28478 36108 ft 452 kts 202°
2026-04-29 00:43 37.72777 -77.29862 36105 ft 455 kts 201°
2026-04-29 00:44 37.66523 -77.31149 36109 ft 455 kts 201°
2026-04-29 00:44 37.60270 -77.32450 36087 ft 457 kts 200°
2026-04-29 00:45 37.53910 -77.33369 36083 ft 462 kts 197°
2026-04-29 00:45 37.47508 -77.34137 36082 ft 462 kts 197°
2026-04-29 00:46 37.41120 -77.34939 36084 ft 461 kts 198°
2026-04-29 00:46 37.34740 -77.35775 36105 ft 461 kts 198°
2026-04-29 00:47 37.28357 -77.36618 36084 ft 461 kts 198°
2026-04-29 00:47 37.21979 -77.37457 36085 ft 461 kts 198°
2026-04-29 00:48 37.15605 -77.38292 36090 ft 460 kts 198°
2026-04-29 00:48 37.09247 -77.39130 36087 ft 458 kts 198°
2026-04-29 00:49 37.02960 -77.40221 36088 ft 454 kts 200°
2026-04-29 00:49 36.96723 -77.41418 36080 ft 453 kts 200°
2026-04-29 00:50 36.90485 -77.42584 36080 ft 453 kts 200°
2026-04-29 00:50 36.84259 -77.43718 36088 ft 452 kts 199°
2026-04-29 00:51 36.78034 -77.44844 36092 ft 452 kts 199°
2026-04-29 00:51 36.71814 -77.45967 36090 ft 451 kts 199°
2026-04-29 00:52 36.65607 -77.47088 36084 ft 451 kts 199°
2026-04-29 00:52 36.59394 -77.48209 36084 ft 451 kts 199°
2026-04-29 00:53 36.53172 -77.49329 36088 ft 451 kts 199°
2026-04-29 00:53 36.46954 -77.50452 36083 ft 452 kts 199°
2026-04-29 00:54 36.40717 -77.51579 36081 ft 453 kts 199°
2026-04-29 00:54 36.34478 -77.52704 36084 ft 453 kts 199°
2026-04-29 00:55 36.28224 -77.53829 36082 ft 454 kts 199°
2026-04-29 00:55 36.21967 -77.54953 36086 ft 455 kts 198°
2026-04-29 00:56 36.15741 -77.56069 36087 ft 455 kts 198°
2026-04-29 00:56 36.09482 -77.57190 36085 ft 455 kts 198°
2026-04-29 00:57 36.03218 -77.58309 36084 ft 454 kts 198°
2026-04-29 00:57 35.96962 -77.59425 36084 ft 454 kts 198°
2026-04-29 00:58 35.90719 -77.60538 36086 ft 453 kts 198°
2026-04-29 00:58 35.84477 -77.61648 36086 ft 453 kts 198°
2026-04-29 00:59 35.78244 -77.62756 36091 ft 452 kts 198°
2026-04-29 00:59 35.72017 -77.63860 36087 ft 452 kts 198°
2026-04-29 01:00 35.65786 -77.64965 36101 ft 452 kts 198°
2026-04-29 01:00 35.59566 -77.66070 36095 ft 451 kts 198°
2026-04-29 01:01 35.53413 -77.67411 36105 ft 448 kts 200°
2026-04-29 01:01 35.47285 -77.68856 36106 ft 448 kts 200°
2026-04-29 01:02 35.41145 -77.70278 36107 ft 450 kts 200°
2026-04-29 01:02 35.34969 -77.71681 36111 ft 453 kts 200°
2026-04-29 01:03 35.28765 -77.73078 36110 ft 454 kts 199°
2026-04-29 01:03 35.22533 -77.74478 36108 ft 455 kts 199°
2026-04-29 01:04 35.16296 -77.75878 36108 ft 456 kts 199°
2026-04-29 01:04 35.10056 -77.77277 36114 ft 456 kts 199°
2026-04-29 01:05 35.03821 -77.78674 36117 ft 456 kts 199°
2026-04-29 01:05 34.97588 -77.80068 36111 ft 455 kts 199°
2026-04-29 01:06 34.91354 -77.81461 36112 ft 455 kts 199°
2026-04-29 01:06 34.85115 -77.82834 36113 ft 457 kts 198°
2026-04-29 01:07 34.78793 -77.83886 36108 ft 460 kts 196°
2026-04-29 01:07 34.72441 -77.84826 36110 ft 460 kts 196°
2026-04-29 01:08 34.66123 -77.85793 36109 ft 460 kts 196°
2026-04-29 01:08 34.59772 -77.86798 36109 ft 461 kts 196°
2026-04-29 01:09 34.53408 -77.87813 36104 ft 462 kts 196°
2026-04-29 01:09 34.47031 -77.88829 36108 ft 462 kts 196°
2026-04-29 01:10 34.40646 -77.89842 36111 ft 463 kts 196°
2026-04-29 01:10 34.34261 -77.90853 36109 ft 463 kts 195°
2026-04-29 01:11 34.27873 -77.91863 36105 ft 463 kts 195°
2026-04-29 01:11 34.21493 -77.92871 36109 ft 462 kts 195°
2026-04-29 01:12 34.15116 -77.93876 36107 ft 462 kts 195°
2026-04-29 01:12 34.08754 -77.94878 36105 ft 461 kts 195°
2026-04-29 01:13 34.02405 -77.95876 36113 ft 460 kts 195°
2026-04-29 01:13 33.96307 -77.96834 36119 ft 459 kts 195°
2026-04-29 01:14 33.89957 -77.97831 36120 ft 460 kts 195°
2026-04-29 01:14 33.83490 -77.98100 36130 ft 471 kts 184°
2026-04-29 01:15 33.76923 -77.97608 36119 ft 473 kts 184°
2026-04-29 01:15 33.70358 -77.97124 36118 ft 472 kts 184°
2026-04-29 01:16 33.63804 -77.96705 36122 ft 472 kts 184°
2026-04-29 01:16 33.57247 -77.96302 36130 ft 472 kts 184°
2026-04-29 01:17 33.50689 -77.95897 36127 ft 471 kts 184°
2026-04-29 01:17 33.44136 -77.95516 36133 ft 472 kts 184°
2026-04-29 01:18 33.37582 -77.95140 36133 ft 472 kts 184°
2026-04-29 01:18 33.27744 -77.94569 36137 ft 472 kts 184°
2026-04-29 01:19 33.21187 -77.94182 36141 ft 472 kts 184°
2026-04-29 01:19 33.14615 -77.93795 36142 ft 473 kts 184°
2026-04-29 01:20 33.08033 -77.93408 36143 ft 474 kts 184°
2026-04-29 01:20 33.01441 -77.93018 36146 ft 474 kts 183°
2026-04-29 01:21 32.94849 -77.92618 36147 ft 474 kts 183°
2026-04-29 01:21 32.88255 -77.92216 36145 ft 474 kts 183°
2026-04-29 01:22 32.81715 -77.91820 36147 ft 473 kts 183°
2026-04-29 01:22 32.75108 -77.91420 36144 ft 472 kts 183°
2026-04-29 01:23 32.68591 -77.91027 36147 ft 471 kts 183°
2026-04-29 01:23 32.62052 -77.90634 36148 ft 470 kts 183°
2026-04-29 01:24 32.55516 -77.90241 36148 ft 470 kts 183°
2026-04-29 01:24 32.48978 -77.89849 36152 ft 471 kts 183°
2026-04-29 01:25 32.43474 -77.89520 36420 ft 473 kts 183°
2026-04-29 01:25 32.40201 -77.89323 36770 ft 470 kts 183°
2026-04-29 01:25 32.36947 -77.89131 37102 ft 468 kts 183°
2026-04-29 01:26 32.33698 -77.88944 37352 ft 467 kts 184°
2026-04-29 01:26 32.30449 -77.88759 37547 ft 468 kts 184°
2026-04-29 01:26 32.27189 -77.88573 37724 ft 469 kts 184°
2026-04-29 01:26 32.23927 -77.88385 37928 ft 470 kts 184°
2026-04-29 01:27 32.20655 -77.88197 38108 ft 471 kts 184°
2026-04-29 01:27 32.17384 -77.88008 38141 ft 471 kts 183°
2026-04-29 01:27 32.10827 -77.87633 38158 ft 474 kts 183°
2026-04-29 01:28 32.04204 -77.87258 38154 ft 478 kts 183°
2026-04-29 01:28 31.97595 -77.86879 38154 ft 479 kts 182°
2026-04-29 01:29 31.91287 -77.86519 38147 ft 478 kts 182°
2026-04-29 01:29 31.84645 -77.86086 38149 ft 477 kts 181°